| time (UTC) | temp F | wind direction | speed MPH | gust MPH | rain 1hr in | rain 24hr in | rain mn in | humidity % | barometer mb |
| 20260507064023 | 51 | 189 | 3.0 | 8.0 | 0.00 | 0.05 | 0.00 | 82 | 1039.0 |
| 20260507063023 | 51 | 317 | 3.0 | 7.0 | 0.00 | 0.05 | 0.00 | 82 | 1038.7 |
| 20260507062023 | 51 | 318 | 3.0 | 7.0 | 0.00 | 0.05 | 0.00 | 83 | 1038.9 |
| 20260507061023 | 51 | 292 | 3.0 | 6.0 | 0.00 | 0.05 | 0.00 | 83 | 1038.7 |
| 20260507060023 | 50 | 284 | 3.0 | 8.0 | 0.00 | 0.05 | 0.00 | 83 | 1038.7 |
| 20260507055023 | 50 | 292 | 3.0 | 6.0 | 0.00 | 0.05 | 0.00 | 84 | 1038.6 |
| 20260507054022 | 50 | 186 | 3.0 | 6.0 | 0.00 | 0.05 | 0.00 | 84 | 1038.5 |
| 20260507053024 | 50 | 317 | 2.0 | 6.0 | 0.00 | 0.05 | 0.00 | 84 | 1038.4 |
| 20260507052023 | 50 | 176 | 2.0 | 6.0 | 0.00 | 0.05 | 0.00 | 84 | 1038.3 |
| 20260507051023 | 49 | 263 | 3.0 | 7.0 | 0.00 | 0.05 | 0.00 | 84 | 1038.3 |
| 20260507050023 | 50 | 256 | 2.0 | 4.0 | 0.00 | 0.05 | 0.00 | 85 | 1038.3 |
| 20260507045023 | 49 | 285 | 2.0 | 8.0 | 0.00 | 0.05 | 0.00 | 86 | 1037.8 |
| 20260507044023 | 48 | 272 | 1.0 | 3.0 | 0.00 | 0.05 | 0.00 | 86 | 1037.9 |
| 20260507043024 | 47 | 286 | 1.0 | 4.0 | 0.00 | 0.05 | 0.00 | 85 | 1037.9 |
| 20260507042023 | 47 | 339 | 2.0 | 6.0 | 0.00 | 0.05 | 0.00 | 84 | 1037.7 |
| 20260507041022 | 48 | 149 | 2.0 | 7.0 | 0.00 | 0.05 | 0.00 | 84 | 1037.5 |
| 20260507040023 | 48 | 281 | 2.0 | 4.0 | 0.00 | 0.05 | 0.00 | 84 | 1037.6 |
| 20260507035023 | 47 | 269 | 1.0 | 4.0 | 0.00 | 0.05 | 0.00 | 84 | 1037.4 |
| 20260507034024 | 48 | 241 | 1.0 | 4.0 | 0.00 | 0.05 | 0.00 | 84 | 1037.5 |
| 20260507033024 | 48 | 282 | 2.0 | 5.0 | 0.00 | 0.05 | 0.00 | 85 | 1037.2 |
| 20260507032024 | 47 | 279 | 2.0 | 8.0 | 0.00 | 0.05 | 0.00 | 87 | 1037.3 |
| 20260507031023 | 47 | 282 | 2.0 | 4.0 | 0.00 | 0.05 | 0.00 | 88 | 1037.4 |
| 20260507030024 | 47 | 295 | 1.0 | 4.0 | 0.00 | 0.05 | 0.00 | 88 | 1037.3 |
| 20260507025023 | 47 | 318 | 2.0 | 4.0 | 0.00 | 0.05 | 0.00 | 88 | 1037.4 |
| 20260507024023 | 47 | 271 | 2.0 | 4.0 | 0.00 | 0.05 | 0.00 | 88 | 1037.1 |
| 20260507023023 | 47 | 325 | 2.0 | 6.0 | 0.00 | 0.05 | 0.00 | 88 | 1037.1 |
| 20260507022023 | 47 | 304 | 2.0 | 4.0 | 0.00 | 0.05 | 0.00 | 87 | 1037.3 |
| 20260507021023 | 47 | 347 | 2.0 | 6.0 | 0.00 | 0.05 | 0.00 | 87 | 1037.3 |
| 20260507020024 | 47 | 317 | 3.0 | 8.0 | 0.00 | 0.05 | 0.00 | 87 | 1037.1 |
| 20260507015024 | 48 | 318 | 4.0 | 8.0 | 0.00 | 0.05 | 0.00 | 88 | 1037.0 |
| 20260507014023 | 48 | 323 | 5.0 | 11.0 | 0.00 | 0.05 | 0.00 | 88 | 1036.9 |
| 20260507013024 | 47 | 345 | 5.0 | 10.0 | 0.00 | 0.05 | 0.00 | 88 | 1037.0 |
| 20260507012024 | 47 | 337 | 4.0 | 10.0 | 0.00 | 0.05 | 0.00 | 88 | 1037.1 |
| 20260507011023 | 47 | 338 | 4.0 | 8.0 | 0.00 | 0.05 | 0.00 | 89 | 1037.1 |
| 20260507010024 | 47 | 316 | 3.0 | 7.0 | 0.00 | 0.05 | 0.00 | 89 | 1036.8 |
| 20260507005024 | 47 | 303 | 2.0 | 5.0 | 0.00 | 0.05 | 0.00 | 89 | 1036.6 |
| 20260507004024 | 47 | 237 | 2.0 | 5.0 | 0.00 | 0.05 | 0.00 | 89 | 1036.8 |
| 20260507003024 | 47 | 246 | 2.0 | 6.0 | 0.00 | 0.05 | 0.00 | 89 | 1036.9 |
| 20260507002024 | 47 | 255 | 1.0 | 4.0 | 0.00 | 0.05 | 0.00 | 89 | 1036.8 |
| 20260507001024 | 47 | 222 | 1.0 | 2.0 | 0.00 | 0.05 | 0.00 | 89 | 1036.7 |
| 20260507000024 | 47 | 283 | 2.0 | 5.0 | 0.00 | 0.05 | 0.00 | 89 | 1036.9 |
| 20260506235024 | 48 | 319 | 3.0 | 6.0 | 0.00 | 0.05 | 0.00 | 89 | 1037.0 |
| 20260506234024 | 48 | 337 | 2.0 | 5.0 | 0.00 | 0.05 | 0.00 | 89 | 1036.9 |
| 20260506233024 | 48 | 317 | 2.0 | 5.0 | 0.00 | 0.05 | 0.00 | 89 | 1037.1 |
| 20260506232023 | 48 | 317 | 3.0 | 4.0 | 0.00 | 0.05 | 0.00 | 88 | 1037.0 |
| 20260506231024 | 49 | 328 | 2.0 | 5.0 | 0.00 | 0.05 | 0.00 | 88 | 1036.8 |
| 20260506230024 | 49 | 347 | 2.0 | 6.0 | 0.00 | 0.05 | 0.00 | 89 | 1036.8 |
| 20260506225024 | 49 | 357 | 2.0 | 5.0 | 0.00 | 0.05 | 0.00 | 89 | 1037.0 |
| 20260506224024 | 49 | 310 | 2.0 | 4.0 | 0.00 | 0.05 | 0.00 | 89 | 1036.8 |
| 20260506223024 | 49 | 310 | 1.0 | 3.0 | 0.00 | 0.05 | 0.00 | 89 | 1036.8 |
| 20260506222024 | 49 | 308 | 2.0 | 5.0 | 0.00 | 0.05 | 0.00 | 89 | 1037.0 |
| 20260506221023 | 49 | 354 | 2.0 | 4.0 | 0.00 | 0.05 | 0.00 | 88 | 1036.6 |
| 20260506220028 | 49 | 310 | 3.0 | 8.0 | 0.00 | 0.05 | 0.00 | 88 | 1036.6 |
| 20260506215024 | 49 | 287 | 3.0 | 10.0 | 0.00 | 0.05 | 0.05 | 88 | 1036.6 |
| 20260506214023 | 49 | 305 | 3.0 | 7.0 | 0.00 | 0.05 | 0.05 | 88 | 1036.2 |
| 20260506213025 | 49 | 292 | 2.0 | 5.0 | 0.00 | 0.05 | 0.05 | 88 | 1036.3 |
| 20260506212024 | 49 | 292 | 3.0 | 7.0 | 0.00 | 0.05 | 0.05 | 88 | 1036.3 |
| 20260506211024 | 49 | 308 | 3.0 | 8.0 | 0.00 | 0.05 | 0.05 | 88 | 1036.4 |
| 20260506210024 | 49 | 301 | 4.0 | 8.0 | 0.00 | 0.05 | 0.05 | 89 | 1036.2 |
| 20260506205023 | 49 | 165 | 1.0 | 5.0 | 0.00 | 0.05 | 0.05 | 89 | 1036.2 |
| 20260506204023 | 49 | 312 | 2.0 | 5.0 | 0.00 | 0.05 | 0.05 | 88 | 1035.9 |
| 20260506203025 | 49 | 259 | 2.0 | 4.0 | 0.00 | 0.06 | 0.05 | 89 | 1036.1 |
| 20260506202023 | 49 | 287 | 1.0 | 4.0 | 0.00 | 0.06 | 0.05 | 88 | 1036.2 |
| 20260506201023 | 49 | 1 | 1.0 | 4.0 | 0.00 | 0.07 | 0.05 | 88 | 1035.9 |
| 20260506200024 | 49 | 279 | 2.0 | 6.0 | 0.00 | 0.07 | 0.05 | 87 | 1036.2 |
| 20260506195023 | 50 | 306 | 3.0 | 8.0 | 0.00 | 0.07 | 0.05 | 87 | 1035.9 |
| 20260506194024 | 50 | 295 | 3.0 | 6.0 | 0.00 | 0.07 | 0.05 | 87 | 1036.0 |
| 20260506193024 | 50 | 315 | 2.0 | 5.0 | 0.00 | 0.07 | 0.05 | 87 | 1035.9 |
| 20260506192023 | 50 | 262 | 2.0 | 6.0 | 0.00 | 0.07 | 0.05 | 86 | 1036.0 |
| 20260506191023 | 50 | 296 | 3.0 | 8.0 | 0.00 | 0.07 | 0.05 | 85 | 1035.5 |
| 20260506190024 | 50 | 288 | 2.0 | 4.0 | 0.00 | 0.07 | 0.05 | 85 | 1035.6 |
| 20260506185023 | 51 | 255 | 2.0 | 6.0 | 0.00 | 0.07 | 0.05 | 84 | 1035.3 |
| 20260506184023 | 51 | 262 | 2.0 | 6.0 | 0.00 | 0.07 | 0.05 | 84 | 1035.4 |
| 20260506183024 | 51 | 282 | 3.0 | 6.0 | 0.00 | 0.07 | 0.05 | 84 | 1035.2 |
| 20260506182023 | 51 | 279 | 3.0 | 7.0 | 0.00 | 0.07 | 0.05 | 84 | 1035.0 |
| 20260506181024 | 51 | 329 | 4.0 | 12.0 | 0.00 | 0.07 | 0.05 | 84 | 1035.0 |
| 20260506180024 | 51 | 209 | 3.0 | 8.0 | 0.00 | 0.07 | 0.05 | 84 | 1034.8 |
| 20260506175029 | 51 | 320 | 3.0 | 11.0 | 0.00 | 0.07 | 0.05 | 84 | 1034.7 |
| 20260506174024 | 51 | 301 | 2.0 | 4.0 | 0.00 | 0.07 | 0.05 | 83 | 1034.6 |
| 20260506173024 | 51 | 188 | 3.0 | 8.0 | 0.00 | 0.07 | 0.05 | 83 | 1034.4 |
| 20260506172023 | 51 | 262 | 3.0 | 9.0 | 0.00 | 0.07 | 0.05 | 84 | 1034.2 |
| 20260506171023 | 51 | 285 | 2.0 | 4.0 | 0.00 | 0.07 | 0.05 | 84 | 1034.1 |
| 20260506170024 | 51 | 288 | 3.0 | 7.0 | 0.00 | 0.07 | 0.05 | 84 | 1033.8 |
| 20260506165023 | 52 | 280 | 3.0 | 8.0 | 0.00 | 0.07 | 0.05 | 83 | 1033.9 |
| 20260506164023 | 52 | 286 | 4.0 | 10.0 | 0.00 | 0.07 | 0.05 | 83 | 1034.1 |
| 20260506163023 | 52 | 193 | 5.0 | 11.0 | 0.00 | 0.07 | 0.05 | 84 | 1034.1 |
| 20260506162023 | 53 | 243 | 7.0 | 15.0 | 0.05 | 0.07 | 0.05 | 84 | 1033.9 |
| 20260506161023 | 53 | 353 | 8.0 | 12.0 | 0.05 | 0.07 | 0.05 | 85 | 1033.9 |
| 20260506160024 | 53 | 254 | 4.0 | 12.0 | 0.05 | 0.07 | 0.05 | 88 | 1033.9 |
| 20260506155023 | 53 | 275 | 6.0 | 11.0 | 0.05 | 0.07 | 0.05 | 88 | 1033.8 |
| 20260506154023 | 53 | 213 | 5.0 | 11.0 | 0.05 | 0.07 | 0.05 | 88 | 1033.8 |
| 20260506153024 | 54 | 302 | 4.0 | 9.0 | 0.05 | 0.07 | 0.05 | 81 | 1033.6 |
| 20260506152022 | 56 | 333 | 9.0 | 23.0 | 0.00 | 0.02 | 0.00 | 68 | 1033.3 |
| 20260506151022 | 63 | 293 | 3.0 | 7.0 | 0.00 | 0.02 | 0.00 | 62 | 1032.3 |
| 20260506150023 | 65 | 303 | 2.0 | 4.0 | 0.00 | 0.02 | 0.00 | 55 | 1031.7 |
| 20260506145023 | 64 | 328 | 3.0 | 5.0 | 0.00 | 0.02 | 0.00 | 60 | 1031.5 |
| 20260506144023 | 64 | 356 | 3.0 | 5.0 | 0.00 | 0.02 | 0.00 | 60 | 1031.5 |
| 20260506143023 | 62 | 351 | 4.0 | 8.0 | 0.00 | 0.02 | 0.00 | 69 | 1031.5 |
| 20260506142023 | 61 | 347 | 3.0 | 8.0 | 0.00 | 0.02 | 0.00 | 71 | 1031.6 |
| 20260506141023 | 60 | 290 | 3.0 | 8.0 | 0.00 | 0.02 | 0.00 | 70 | 1031.5 |
| 20260506140023 | 62 | 339 | 2.0 | 6.0 | 0.00 | 0.02 | 0.00 | 70 | 1032.3 |
| 20260506135023 | 62 | 338 | 3.0 | 5.0 | 0.00 | 0.02 | 0.00 | 66 | 1032.1 |
| 20260506134023 | 63 | 340 | 3.0 | 5.0 | 0.00 | 0.02 | 0.00 | 64 | 1032.1 |
| 20260506133023 | 63 | 302 | 2.0 | 6.0 | 0.00 | 0.02 | 0.00 | 60 | 1031.9 |
| 20260506132022 | 64 | 334 | 2.0 | 4.0 | 0.00 | 0.02 | 0.00 | 53 | 1032.3 |
| 20260506131023 | 64 | 199 | 1.0 | 3.0 | 0.00 | 0.02 | 0.00 | 52 | 1032.0 |
| 20260506130023 | 65 | 230 | 1.0 | 3.0 | 0.00 | 0.02 | 0.00 | 52 | 1031.8 |
| 20260506125023 | 65 | 282 | 2.0 | 5.0 | 0.00 | 0.02 | 0.00 | 51 | 1031.7 |
| 20260506124022 | 65 | 187 | 2.0 | 4.0 | 0.00 | 0.02 | 0.00 | 51 | 1031.7 |
| 20260506123023 | 64 | 220 | 3.0 | 5.0 | 0.00 | 0.02 | 0.00 | 51 | 1031.5 |
| 20260506122023 | 64 | 279 | 4.0 | 7.0 | 0.00 | 0.04 | 0.00 | 51 | 1031.6 |
| 20260506121022 | 64 | 294 | 3.0 | 6.0 | 0.00 | 0.04 | 0.00 | 50 | 1031.4 |
| 20260506120023 | 64 | 288 | 3.0 | 6.0 | 0.00 | 0.04 | 0.00 | 50 | 1031.9 |
| 20260506115023 | 65 | 282 | 3.0 | 8.0 | 0.00 | 0.04 | 0.00 | 47 | 1031.8 |
| 20260506114023 | 64 | 274 | 4.0 | 6.0 | 0.00 | 0.04 | 0.00 | 47 | 1031.8 |
| 20260506113023 | 65 | 213 | 2.0 | 6.0 | 0.00 | 0.04 | 0.00 | 51 | 1031.9 |
| 20260506112023 | 65 | 244 | 3.0 | 6.0 | 0.00 | 0.04 | 0.00 | 52 | 1032.0 |
| 20260506111022 | 64 | 236 | 3.0 | 5.0 | 0.00 | 0.04 | 0.00 | 51 | 1032.1 |
| 20260506110023 | 64 | 248 | 3.0 | 6.0 | 0.00 | 0.04 | 0.00 | 54 | 1032.2 |
| 20260506105022 | 64 | 249 | 3.0 | 8.0 | 0.00 | 0.04 | 0.00 | 55 | 1032.0 |
| 20260506104023 | 63 | 237 | 2.0 | 5.0 | 0.00 | 0.04 | 0.00 | 61 | 1031.9 |
| 20260506103022 | 62 | 257 | 2.0 | 4.0 | 0.00 | 0.04 | 0.00 | 61 | 1032.5 |
| 20260506102022 | 62 | 274 | 1.0 | 4.0 | 0.00 | 0.04 | 0.00 | 60 | 1032.7 |
| 20260506101022 | 62 | 221 | 1.0 | 3.0 | 0.00 | 0.04 | 0.00 | 59 | 1032.7 |
| 20260506100023 | 62 | 212 | 2.0 | 4.0 | 0.00 | 0.04 | 0.00 | 60 | 1033.1 |
| 20260506095022 | 62 | 266 | 2.0 | 4.0 | 0.00 | 0.04 | 0.00 | 59 | 1032.9 |
| 20260506094022 | 62 | 283 | 2.0 | 4.0 | 0.00 | 0.04 | 0.00 | 60 | 1032.9 |
| 20260506093023 | 63 | 242 | 2.0 | 5.0 | 0.00 | 0.04 | 0.00 | 60 | 1032.8 |
| 20260506092022 | 63 | 272 | 2.0 | 4.0 | 0.00 | 0.04 | 0.00 | 61 | 1033.0 |
| 20260506091022 | 62 | 251 | 2.0 | 4.0 | 0.00 | 0.04 | 0.00 | 63 | 1032.9 |
| 20260506090023 | 62 | 233 | 2.0 | 4.0 | 0.00 | 0.04 | 0.00 | 66 | 1032.9 |
| 20260506085023 | 60 | 257 | 1.0 | 4.0 | 0.00 | 0.04 | 0.00 | 68 | 1033.0 |
| 20260506084022 | 59 | 315 | 1.0 | 2.0 | 0.00 | 0.04 | 0.00 | 70 | 1032.9 |
| 20260506083023 | 59 | 334 | 1.0 | 2.0 | 0.00 | 0.04 | 0.00 | 70 | 1033.1 |
| 20260506082022 | 59 | 213 | 1.0 | 3.0 | 0.00 | 0.04 | 0.00 | 71 | 1033.1 |
| 20260506081022 | 58 | 245 | 1.0 | 2.0 | 0.00 | 0.04 | 0.00 | 72 | 1032.9 |
| 20260506073023 | 57 | 165 | 1.0 | 3.0 | 0.00 | 0.04 | 0.00 | 74 | 1033.2 |
| 20260506072022 | 57 | 337 | 1.0 | 3.0 | 0.00 | 0.04 | 0.00 | 77 | 1033.0 |
| 20260506071022 | 56 | 316 | 1.0 | 2.0 | 0.00 | 0.04 | 0.00 | 79 | 1033.2 |